Regional Weather Roundup
Issued by NWS Upton, NY

Current Version | Previous Version | Text Only | Print | Product List | Glossary Off
Versions: 1 2 3 4 5 6 7 8 9 10 11 12 13 14 15 16 17 18 19 20 21 22 23 24 25 26 27 28 29 30 31 32 33 34 35 36 37 38 39 40 41 42 43 44 45 46 47 48 49 50
000 ASUS41 KOKX 170005 RWROKX REGIONAL WEATHER ROUNDUP NATIONAL WEATHER SERVICE NEW YORK NY 800 PM EDT TUE SEP 16 2014 NOTE: "FAIR" INDICATES FEW OR NO CLOUDS BELOW 12,000 FEET WITH NO SIGNIFICANT WEATHER AND/OR OBSTRUCTIONS TO VISIBILITY. NYZ071-072-176-178-NJZ106-104-170100- NEW YORK CITY METRO AREA CITY SKY/WX TMP DP RH WIND PRES REMARKS CENTRAL PARK MOCLDY 66 50 56 VRB3 30.02R LAGUARDIA APRT CLOUDY 66 56 70 CALM 29.99R KENNEDY INTL MOCLDY 64 58 80 CALM 30.00R NEWARK/LIBERTY PTCLDY 66 50 56 N7 29.99R BRNX BOT. GARD N/A 63 54 72 CALM 30.00R TETERBORO CLEAR 66 50 56 CALM 29.99R $$ NYZ177-179-078>081-170100- LONG ISLAND NEW YORK CITY SKY/WX TMP DP RH WIND PRES REMARKS FARMINGDALE CLOUDY 64 57 78 W3 29.99S ISLIP MOCLDY 61 58 90 CALM 29.98R SHIRLEY CLOUDY 61 58 90 CALM 30.00R WESTHAMPTON FOG 56 54 93 CALM 30.00R VSB 3/4 MONTAUK POINT N/A 64 56 75 W3 30.00R $$ NYZ052-065-067-170100- HUDSON VALLEY CITY SKY/WX TMP DP RH WIND PRES REMARKS WHITE PLAINS PTCLDY 58 55 90 CALM 30.00R NEWBURGH MOCLDY 61 54 77 NW8 30.01R MONTGOMERY PTCLDY 57 51 80 S3 30.00R POUGHKEEPSIE MOCLDY 61 57 87 CALM 29.99R ALBANY PTCLDY 58 47 66 W8 30.00R $$ NJZ001-105-106-008-010-013-015-019>022-104-170100- NEW JERSEY CITY SKY/WX TMP DP RH WIND PRES REMARKS NEWARK/LIBERTY PTCLDY 66 50 56 N7 29.99R TETERBORO CLEAR 66 50 56 CALM 29.99R CALDWELL CLEAR 60 51 72 S3 30.01R MORRISTOWN PTCLDY 57 52 82 CALM 30.01R SOMERVILLE CLEAR 57 53 86 CALM 29.99R LINDEN FAIR 69 55 59 NW3 30.01R SUSSEX PTCLDY 57 51 80 CALM 30.01R ANDOVER N/A 54 51 90 CALM 30.03R TRENTON PTCLDY 63 51 65 N3 30.00R MILLVILLE PTCLDY 64 57 78 CALM 29.99S ATLANTIC CITY PTCLDY 62 56 80 E3 30.00R WRIGHTSTOWN CLEAR 61 58 90 N2 29.98R TOMS RIVER CLEAR 61 59 94 CALM 30.00R BELMAR CLEAR 63 55 77 CALM 30.00R $$ PAZ047>061-062-071-170100- EASTERN PENNSYLVANIA CITY SKY/WX TMP DP RH WIND PRES REMARKS PHILADELPHIA PTCLDY 69 51 52 N8 30.01R ALLENTOWN MOCLDY 61 49 64 N3 30.02R SCRANTON CLEAR 55 48 77 CALM 30.03R $$ CTZ002-004>006-009-010-012-RIZ004-006-007-MAZ004-011-015-170100- SOUTHERN NEW ENGLAND IN CT CITY SKY/WX TMP DP RH WIND PRES REMARKS BRADLEY INTL MOCLDY 60 54 80 NW3 29.98R HARTFORD CLOUDY 64 52 64 VRB5 29.99R DANBURY PTCLDY 58 54 86 SE3 30.01R WTRBRY/OXFORD NOT AVBL BRIDGEPORT MOCLDY 64 56 75 N3 29.99R MERIDEN CLOUDY 59 56 89 CALM 30.00R NEW HAVEN MOCLDY 66 58 75 CALM 30.00R CHESTER CLOUDY 61 57 88 CALM 30.00R GROTON CLOUDY 61 57 87 CALM 29.98R WILLIMANTIC CLOUDY 62 56 80 CALM 30.00R IN RI CITY SKY/WX TMP DP RH WIND PRES REMARKS PROVIDENCE MOCLDY 64 55 72 NW5 29.98R BLOCK ISLAND MOCLDY 63 54 72 W5 29.98S WESTERLY MOCLDY 60 56 86 CALM 29.99R IN MA CITY SKY/WX TMP DP RH WIND PRES REMARKS BOSTON MOCLDY 61 54 77 SE5 29.98R WORCESTER CLOUDY 57 53 86 SW5 30.00R WESTFIELD CLOUDY 62 53 72 W3 29.99R PROVINCETOWN CLEAR 57 54 88 E6 29.98S NANTUCKET CLEAR 58 53 84 CALM 29.98R $$ ANZ330-335-338-340-345-350-353-355-170100- COASTAL MARINE OBSERVATIONS STATION/POSITION TIME SKY/WX TEMP WIND PRES VSBY WAVE AIR SEA DIR/SP/G HT/PER (UTC) (F) (DEG/KT/KT) (MB) (MI) (FT/S) NY HARB ENTRANCE NOT AVBL 4S FIRE IS NOT AVBL 23SW MTP 0000 N/A 2/13 HUDSON CANYON 0000 67 73 30/ 12/ 16 1014.8 2/ 7 EXECUTION ROCKS 0000 68 72 350/ 4/ 8 N/A WESTERN LI SOUND 2300 68 340/ 6/ 8 N/A 0 CENTRAL LI SOUND 0000 66 71 290/ 6/ 8 N/A 0 EASTERN LI SOUND 2300 65 68 290/ 8/ 10 N/A ROBBINS REEF 0000 68 340/ 10/ 12 1014.2 $$ >>>>>>>>>>>>>>>>>>>>>>>>>>>> KEY <<<<<<<<<<<<<<<<<<<<<<<<<<< > < > SKY/WX - SKY CONDITION/PRESENT WEATHER < > TMP - TEMPERATURE IN FAHRENHEIT < > DP - DEWPOINT IN FAHRENHEIT < > RH - RELATIVE HUMIDITY IN PERCENT < > WIND - DIRECTION AND SPEED IN MPH < > PRES - MEAN SEA LEVEL PRESSURE IN INCHES OF HG < > WCI - WIND CHILL INDEX < > VSB - VISIBILITY IN MILES < > HX - HEAT INDEX < > TC - TEMPERATURE IN CELSIUS < > VRB - VARIABLE WIND DIRECTION < > < >>>>>>>>>>>>>>>>>>>>>>>>>>>> KEY <<<<<<<<<<<<<<<<<<<<<<<<<<<

USA.gov is the U.S. government's official web portal to all federal, state and local government web resources and services.